Time,TemperatureF,DewpointF,PressureIn,WindDirection,WindDirectionDegrees,WindSpeedMPH,WindSpeedGustMPH,Humidity,HourlyPrecipIn,Conditions,Clouds,dailyrainin,SoftwareType,DateUTC
2013-02-20 00:30:00,31.0,29.0,-100.00,NW,316,0.0,2.0,94,-99.99,,,-99.99,,2013-02-20 07:30:00,
2013-02-20 01:11:00,31.0,29.0,-100.00,NW,316,0.0,2.0,94,-99.99,,,-99.99,,2013-02-20 08:11:00,
2013-02-20 01:21:00,31.0,29.0,-100.00,NW,316,0.0,2.0,94,-99.99,,,-99.99,,2013-02-20 08:21:00,
2013-02-20 01:30:00,30.0,28.0,-100.00,NW,309,2.0,2.0,94,-99.99,,,-99.99,,2013-02-20 08:30:00,
2013-02-20 02:11:00,30.0,28.0,-100.00,NW,309,2.0,2.0,94,-99.99,,,-99.99,,2013-02-20 09:11:00,
2013-02-20 02:21:00,30.0,28.0,-100.00,NW,309,2.0,2.0,94,-99.99,,,-99.99,,2013-02-20 09:21:00,
2013-02-20 03:31:00,30.0,28.0,-100.00,West,267,0.0,0.0,92,-99.99,,,-99.99,,2013-02-20 10:31:00,
2013-02-20 03:41:00,30.0,28.0,-100.00,West,267,0.0,0.0,92,-99.99,,,-99.99,,2013-02-20 10:41:00,
2013-02-20 06:30:00,30.0,28.0,-100.00,SW,231,2.0,2.0,94,-99.99,,,-99.99,,2013-02-20 13:30:00,
2013-02-20 07:11:00,30.0,28.0,-100.00,SW,231,2.0,2.0,94,-99.99,,,-99.99,,2013-02-20 14:11:00,
2013-02-20 07:21:00,30.0,28.0,-100.00,SW,231,2.0,2.0,94,-99.99,,,-99.99,,2013-02-20 14:21:00,
2013-02-20 07:30:00,29.0,27.0,-100.00,WSW,255,2.0,2.0,93,-99.99,,,-99.99,,2013-02-20 14:30:00,
2013-02-20 08:11:00,29.0,27.0,-100.00,WSW,255,2.0,2.0,93,-99.99,,,-99.99,,2013-02-20 15:11:00,
2013-02-20 08:22:00,29.0,27.0,-100.00,WSW,255,2.0,2.0,93,-99.99,,,-99.99,,2013-02-20 15:22:00,
2013-02-20 08:30:00,31.0,28.0,-100.00,SSE,168,0.0,0.0,90,-99.99,,,-99.99,,2013-02-20 15:30:00,
2013-02-20 09:11:00,31.0,28.0,-100.00,SSE,168,0.0,0.0,90,-99.99,,,-99.99,,2013-02-20 16:11:00,
2013-02-20 09:21:00,31.0,28.0,-100.00,SSE,168,0.0,0.0,90,-99.99,,,-99.99,,2013-02-20 16:21:00,
2013-02-20 10:30:00,32.0,28.0,-100.00,SSE,150,2.0,2.0,86,-99.99,,,-99.99,,2013-02-20 17:30:00,
2013-02-20 11:11:00,32.0,28.0,-100.00,SSE,150,2.0,2.0,86,-99.99,,,-99.99,,2013-02-20 18:11:00,
2013-02-20 11:21:00,32.0,28.0,-100.00,SSE,150,2.0,2.0,86,-99.99,,,-99.99,,2013-02-20 18:21:00,
2013-02-20 12:30:00,36.0,25.0,-100.00,SSE,157,2.0,4.0,65,-99.99,,,-99.99,,2013-02-20 19:30:00,
2013-02-20 13:11:00,36.0,25.0,-100.00,SSE,157,2.0,4.0,65,-99.99,,,-99.99,,2013-02-20 20:11:00,
2013-02-20 13:21:00,36.0,25.0,-100.00,SSE,157,2.0,4.0,65,-99.99,,,-99.99,,2013-02-20 20:21:00,
2013-02-20 13:30:00,37.0,24.0,-100.00,SSE,167,2.0,2.0,59,-99.99,,,-99.99,,2013-02-20 20:30:00,
2013-02-20 14:11:00,37.0,24.0,-100.00,SSE,167,2.0,2.0,59,-99.99,,,-99.99,,2013-02-20 21:11:00,
2013-02-20 14:21:00,37.0,24.0,-100.00,SSE,167,2.0,2.0,59,-99.99,,,-99.99,,2013-02-20 21:21:00,
2013-02-20 14:30:00,38.0,21.0,-100.00,SW,236,0.0,2.0,50,-99.99,,,-99.99,,2013-02-20 21:30:00,
2013-02-20 15:11:00,38.0,21.0,-100.00,SW,236,0.0,2.0,50,-99.99,,,-99.99,,2013-02-20 22:11:00,
2013-02-20 15:21:00,38.0,21.0,-100.00,SW,236,0.0,2.0,50,-99.99,,,-99.99,,2013-02-20 22:21:00,
2013-02-20 16:30:00,37.0,22.0,-100.00,SSE,164,0.0,2.0,54,-99.99,,,-99.99,,2013-02-20 23:30:00,
2013-02-20 17:11:00,37.0,22.0,-100.00,SSE,164,0.0,2.0,54,-99.99,,,-99.99,,2013-02-21 00:11:00,
2013-02-20 17:21:00,37.0,22.0,-100.00,SSE,164,0.0,2.0,54,-99.99,,,-99.99,,2013-02-21 00:21:00,
2013-02-20 18:30:00,34.0,21.0,-100.00,SW,223,2.0,2.0,59,-99.99,,,-99.99,,2013-02-21 01:30:00,
2013-02-20 19:11:00,34.0,21.0,-100.00,SW,223,2.0,2.0,59,-99.99,,,-99.99,,2013-02-21 02:11:00,
2013-02-20 19:21:00,34.0,21.0,-100.00,SW,223,2.0,2.0,59,-99.99,,,-99.99,,2013-02-21 02:21:00,
2013-02-20 19:30:00,34.0,19.0,-100.00,West,280,0.0,2.0,53,-99.99,,,-99.99,,2013-02-21 02:30:00,
2013-02-20 20:12:00,34.0,19.0,-100.00,West,280,0.0,2.0,53,-99.99,,,-99.99,,2013-02-21 03:12:00,
2013-02-20 20:21:00,34.0,19.0,-100.00,West,280,0.0,2.0,53,-99.99,,,-99.99,,2013-02-21 03:21:00,
2013-02-20 20:30:00,33.0,15.0,-100.00,WNW,286,0.0,2.0,48,-99.99,,,-99.99,,2013-02-21 03:30:00,
2013-02-20 21:11:00,33.0,15.0,-100.00,WNW,286,0.0,2.0,48,-99.99,,,-99.99,,2013-02-21 04:11:00,
2013-02-20 21:21:00,33.0,15.0,-100.00,WNW,286,0.0,2.0,48,-99.99,,,-99.99,,2013-02-21 04:21:00,
2013-02-20 22:30:00,31.0,16.0,-100.00,West,265,2.0,2.0,54,-99.99,,,-99.99,,2013-02-21 05:30:00,
2013-02-20 23:11:00,31.0,16.0,-100.00,West,265,2.0,2.0,54,-99.99,,,-99.99,,2013-02-21 06:11:00,
2013-02-20 23:21:00,31.0,16.0,-100.00,West,265,2.0,2.0,54,-99.99,,,-99.99,,2013-02-21 06:21:00,